Location: ????????
(56.1167°N, 38.6333°E)
Time: 21:34:28
(UTC+00:00)

ATLAS 2AS CENTAUR R/B - Pass Details

Date: 18 November 2025
Orbit: 1047 x 1163 km, 63.7° (Epoch: 14 December)

Event Time Altitude Azimuth Distance (km) Brightness Sun altitude
Rises 13:50:43 0° 289° (WNW) 3,885 6.4 -5.5°
Reaches altitude 10° 13:53:32 10° 295° (WNW) 2,913 5.6 -5.8°
Maximum altitude 14:00:08 47° 9° (N) 1,378 3.1 -6.7°
Drops below altitude 10° 14:06:38 10° 83° (E) 2,867 4.3 -7.5°
Enters shadow 14:07:22 - 85° (E) 3,117 4.5 -7.6°
